Location: Rumah Sambob
(2.9167°N, 113.9167°E)
Time: 11:41:03
(UTC+00:00)

NOSS 3-1 (C) - Pass Details

Date: 06 June 2020
Orbit: 752 x 1456 km, 63.4° (Epoch: 15 June)

Event Time Altitude Azimuth Distance (km) Brightness Sun altitude
Rises 20:00:12 0° 334° (NNW) 4,396 6.9 -31.2°
Reaches altitude 10° 20:03:01 10° 333° (NNW) 3,480 6.4 -30.6°
Maximum altitude 20:11:47 78° 248° (WSW) 1,485 4.2 -28.7°
Drops below altitude 10° 20:20:41 10° 162° (SSE) 3,521 6.3 -26.7°
Sets 20:23:33 0° 161° (SSE) 4,450 6.9 -26.1°
